Location: Unspecified
(35.6961°N, 0.0000°E)
Time: 02:51:51
(UTC+00:00)

Courier 1B Rocket - Pass Details

Date: 25 May 2019
Orbit: 920 x 1202 km, 28.2° (Epoch: 16 June)

Event Time Altitude Azimuth Distance (km) Brightness Sun altitude
Rises 20:52:29 0° 266° (W) 4,082 8.9 -18.4°
Reaches altitude 10° 20:56:09 10° 252° (WSW) 3,094 7.9 -19.0°
Maximum altitude 21:01:33 21° 207° (SSW) 2,322 6.8 -19.7°
Enters shadow 21:03:50 18° 183° (S) 2,445 6.7 -20.0°
